, AK

(GMT )
Cape Lisburne

Weather History for PALU - September, 2013

Change the Weather History Date:

Monday, September 16, 2013

  Actual Average Record
Temperature  
Mean Temperature 33 °F -  
Max Temperature 36 °F 39 °F 54 °F (2005)
Min Temperature 30 °F 34 °F 28 °F (2000)
Degree Days  
Heating Degree Days 32    
Moisture  
Dew Point 30 °F    
Average Humidity 89    
Maximum Humidity 93    
Minimum Humidity 80    
Precipitation  
Precipitation 0.00 in - - ()
Sea Level Pressure  
Sea Level Pressure 30.18 in    
Wind  
Wind Speed 24 mph (East)    
Max Wind Speed 30 mph    
Max Gust Speed 37 mph    
Visibility 8 miles    
Events Rain , Snow    
Averages and records for this station are not official NWS values.
T = Trace of Precipitation, MM = Missing Value Source: NWS Daily Summary

Daily Weather History Graph

Daily Weather History Graph

Search for Another Location

Airport or City:

Trip Planner

Search our weather history database for the weather conditions in past years. The results will help you decide how hot, cold, wet, or windy it might be!

Date:

Astronomy

Sep. 16, 2013 Rise Set
Actual Time 8:24 AM AKDT 9:30 PM AKDT
Civil Twilight 7:25 AM AKDT 10:30 PM AKDT
Nautical Twilight 6:05 AM AKDT 11:48 PM AKDT
Astronomical Twilight 3:55 AM AKDT 1:49 AM AKDT
Moon 8:35 PM AKDT (9/16) 4:13 AM AKDT (9/16)
Length of Visible Light 15h 05m
Length of Day
13h 06m
Waxing Gibbous, 91% of the Moon is Illuminated
Sep 16
Waxing Gibbous
Sep 19
Full
Sep 26
Last Quarter
Oct 4
New
Oct 11
First Quarter

Hourly Weather History & Observations

Time (AKDT) Temp. Windchill Dew Point Humidity Pressure Visibility Wind Dir Wind Speed Gust Speed Precip Events Conditions
12:55 AM 36.7 °F 26.6 °F 33.8 °F 89% 30.18 in 10.0 mi ENE 18.4 mph - N/A   Overcast
1:55 AM 36.7 °F 26.0 °F 33.6 °F 89% 30.18 in 10.0 mi East 20.7 mph - N/A   Mostly Cloudy
2:55 AM 36.5 °F 25.4 °F 33.4 °F 89% 30.18 in 10.0 mi East 21.9 mph - N/A   Mostly Cloudy
3:46 AM 35.6 °F 24.2 °F 32.0 °F 87% 30.18 in 10.0 mi East 21.9 mph 29.9 mph N/A   Mostly Cloudy
3:55 AM 35.8 °F 23.9 °F 32.9 °F 89% 30.18 in 10.0 mi East 24.2 mph - N/A   Mostly Cloudy
4:51 AM 35.6 °F 23.7 °F 32.0 °F 87% 30.17 in 10.0 mi East 24.2 mph - N/A   Mostly Cloudy
4:55 AM 35.4 °F 23.2 °F 31.6 °F 86% 30.17 in 10.0 mi East 25.3 mph 29.9 mph N/A   Mostly Cloudy
5:55 AM 35.2 °F 23.2 °F 32.0 °F 88% 30.17 in 10.0 mi East 24.2 mph 31.1 mph N/A   Overcast
6:40 AM 33.8 °F 20.8 °F 30.2 °F 87% 30.17 in 10.0 mi East 26.5 mph 31.1 mph N/A   Overcast
6:55 AM 34.2 °F 22.3 °F 31.3 °F 89% 30.17 in 10.0 mi East 21.9 mph 31.1 mph N/A   Overcast
7:25 AM 33.8 °F 21.0 °F 32.0 °F 93% 30.17 in 5.0 mi East 25.3 mph - N/A Rain Light Rain
7:55 AM 33.1 °F 19.6 °F 30.6 °F 90% 30.17 in 6.0 mi East 27.6 mph 32.2 mph N/A Rain , Snow Light Rain
8:10 AM 32.0 °F 18.1 °F 30.2 °F 93% 30.17 in 1.8 mi East 27.6 mph - N/A Rain , Snow Light Rain
8:35 AM 32.0 °F 18.6 °F 30.2 °F 93% 30.18 in 5.0 mi East 25.3 mph - N/A Rain , Snow Light Rain
8:55 AM 32.4 °F 19.1 °F 29.8 °F 90% 30.18 in 9.0 mi East 25.3 mph 33.4 mph N/A Rain Light Rain Showers
9:20 AM 32.0 °F 18.1 °F 30.2 °F 93% 30.18 in 8.0 mi East 27.6 mph 32.2 mph N/A   Overcast
9:45 AM 32.0 °F 18.1 °F 30.2 °F 93% 30.18 in 4.0 mi East 27.6 mph 33.4 mph N/A Snow Light Snow Showers
9:55 AM 31.3 °F 17.9 °F 28.8 °F 90% 30.19 in 7.0 mi East 24.2 mph 32.2 mph N/A Snow Light Snow Showers
10:30 AM 32.0 °F 18.1 °F 28.4 °F 87% 30.19 in 9.0 mi East 27.6 mph 32.2 mph N/A   Overcast
10:55 AM 30.7 °F 16.4 °F 28.9 °F 93% 30.18 in 8.0 mi East 27.6 mph 32.2 mph N/A   Overcast
11:55 AM 30.9 °F 16.2 °F 28.8 °F 92% 30.18 in 4.0 mi East 29.9 mph 33.4 mph N/A Snow Light Snow
12:35 PM 32.0 °F 18.6 °F 28.4 °F 87% 30.19 in 9.0 mi East 25.3 mph 32.2 mph N/A   Overcast
12:55 PM 31.5 °F 17.4 °F 29.3 °F 92% 30.18 in 2.0 mi East 27.6 mph 31.1 mph N/A Snow Light Snow Showers
1:00 PM 32.0 °F 18.4 °F 30.2 °F 93% 30.18 in 1.0 mi East 26.5 mph 31.1 mph N/A Snow Light Snow Showers
1:25 PM 32.0 °F 18.4 °F 28.4 °F 87% 30.19 in 8.0 mi ENE 26.5 mph 31.1 mph N/A Snow Light Snow Showers
1:50 PM 30.2 °F 16.8 °F 28.4 °F 93% 30.19 in 8.0 mi East 23.0 mph 29.9 mph N/A   Overcast
1:55 PM 30.9 °F 17.2 °F 28.0 °F 89% 30.18 in 10.0 mi East 25.3 mph - N/A   Mostly Cloudy
2:40 PM 32.0 °F 19.8 °F 28.4 °F 87% 30.18 in 3.0 mi East 20.7 mph 29.9 mph N/A Snow Light Snow Showers
2:55 PM 31.1 °F 18.0 °F 28.6 °F 90% 30.18 in 4.0 mi East 23.0 mph 29.9 mph N/A Snow Light Snow Showers
3:05 PM 32.0 °F 18.9 °F 28.4 °F 87% 30.18 in 10.0 mi East 24.2 mph 28.8 mph N/A   Overcast
3:30 PM 32.0 °F 18.9 °F 28.4 °F 87% 30.18 in 10.0 mi East 24.2 mph 31.1 mph N/A   Mostly Cloudy
3:55 PM 31.5 °F 18.5 °F 29.3 °F 92% 30.18 in 3.0 mi East 23.0 mph - N/A Rain Light Freezing Rain
4:15 PM 32.0 °F 19.2 °F 28.4 °F 87% 30.17 in 10.0 mi East 23.0 mph 28.8 mph N/A   Overcast
4:40 PM 32.0 °F 20.1 °F 28.4 °F 87% 30.17 in 10.0 mi East 19.6 mph 27.6 mph N/A Rain Light Rain Showers
4:55 PM 31.5 °F 18.2 °F 28.4 °F 88% 30.17 in 10.0 mi East 24.2 mph 28.8 mph N/A   Mostly Cloudy
5:05 PM 32.0 °F 18.9 °F 28.4 °F 87% 30.16 in 10.0 mi ENE 24.2 mph 29.9 mph N/A   Overcast
5:55 PM 31.3 °F 17.7 °F 27.3 °F 85% 30.17 in 10.0 mi East 25.3 mph - N/A   Overcast
6:10 PM 32.0 °F 19.2 °F 26.6 °F 80% 30.17 in 10.0 mi East 23.0 mph 29.9 mph N/A   Overcast
6:35 PM 32.0 °F 19.2 °F 28.4 °F 87% 30.16 in 10.0 mi East 23.0 mph 31.1 mph N/A   Overcast
6:55 PM 31.8 °F 18.1 °F 28.2 °F 87% 30.17 in 10.0 mi ENE 26.5 mph 32.2 mph N/A   Overcast
7:55 PM 31.3 °F 17.4 °F 28.2 °F 88% 30.17 in 10.0 mi East 26.5 mph 33.4 mph N/A   Overcast
8:55 PM 31.8 °F 19.0 °F 28.8 °F 88% 30.17 in 10.0 mi East 23.0 mph 33.4 mph N/A   Overcast
9:55 PM 32.0 °F 19.2 °F 28.8 °F 88% 30.17 in 10.0 mi ENE 23.0 mph 34.5 mph N/A   Overcast
10:55 PM 31.8 °F 17.4 °F 27.5 °F 84% 30.17 in 10.0 mi ENE 29.9 mph 36.8 mph N/A   Overcast
11:55 PM 31.5 °F 17.6 °F 27.7 °F 86% 30.17 in 10.0 mi East 26.5 mph 31.1 mph N/A   Overcast